This is the latest recevied weather packets stored in our database for station/object KI4SSU. If no packets are shown the sender has not sent any weather packets the latest 1 day(s).
| Time | Temp. | Humidity | Pressure | Rain* | Wind** | Luminosity | Snow |
|---|---|---|---|---|---|---|---|
| 1778034379 | 21.11° C | - | - | 0 mm | 1.79 m/s, 339° | - | - |
| 1778034079 | 21.11° C | - | - | 0 mm | 2.68 m/s, 320° | - | - |
| 1778033479 | 21.67° C | - | - | 0 mm | 1.79 m/s, 359° | - | - |
| 1778033179 | 21.67° C | - | - | 0 mm | 1.79 m/s, 311° | - | - |
| 1778032879 | 21.67° C | - | - | 0 mm | 3.13 m/s, 352° | - | - |
| 1778032579 | 21.67° C | - | - | 0 mm | 2.24 m/s, 349° | - | - |
| 1778032279 | 22.22° C | - | - | 0 mm | 1.79 m/s, 322° | - | - |
| 1778031979 | 22.22° C | - | - | 0 mm | 3.13 m/s, 352° | - | - |
| 1778031680 | 22.22° C | - | - | 0 mm | 2.24 m/s, 4° | - | - |
| 1778031379 | 22.22° C | - | - | 0 mm | 2.68 m/s, 359° | - | - |
| 1778031079 | 22.78° C | - | - | 0 mm | 2.24 m/s, 348° | - | - |
| 1778030779 | 22.78° C | - | - | 0 mm | 2.24 m/s, 23° | - | - |
| 1778030180 | 22.78° C | - | - | 0 mm | 1.79 m/s, 348° | - | - |
| 1778029880 | 23.33° C | - | - | 0 mm | 0 m/s | - | - |
| 1778029580 | 23.33° C | - | - | 0 mm | 3.13 m/s, 341° | - | - |
| 1778029279 | 23.89° C | - | - | 0 mm | 2.24 m/s, 325° | - | - |
| 1778028979 | 24.44° C | - | - | 0 mm | 2.24 m/s, 37° | - | - |
| 1778028679 | 24.44° C | - | - | 0 mm | 1.34 m/s, 18° | - | - |
| 1778028379 | 24.44° C | - | - | 0 mm | 1.34 m/s, 32° | - | - |
| 1778028079 | 25° C | - | - | 0 mm | 1.79 m/s, 356° | - | - |
| 1778027479 | 25.56° C | - | - | 0 mm | 2.68 m/s, 155° | - | - |
| 1778027180 | 25.56° C | - | - | 0 mm | 1.79 m/s, 359° | - | - |
| 1778026879 | 26.11° C | - | - | 0 mm | 2.24 m/s, 7° | - | - |
| 1778026279 | 26.11° C | - | - | 0 mm | 2.24 m/s, 6° | - | - |
| 1778025679 | 26.67° C | - | - | 0 mm | 1.79 m/s, 348° | - | - |
* Rain since midnight (hover to see other rain measurements)
** Current wind speed in m/s (hover to see current wind gust speed)